HIMAWARI-7 (MTSAT-2)    
1 28937U 06004A   19265.53494337 -.00000250  00000-0  00000+0 0  9997
2 28937   0.0077 197.9207 0003762 344.1662 156.6223  1.00274281 49681
H-2A R/B                
1 28938U 06004B   19266.29680870  .00001589  00000-0  39709-3 0  9998
2 28938  28.5405 330.6898 6859701   3.9348 359.5549  2.83025467127733